User: anonymous   Login
Location: Plum
(40.5000°N, 79.7500°W)
Time: 13:29:46
(UTC-05:00)
Language:

Cosmos 1825 - Orbit

View from above orbital plane
View from above orbital plane
View from above satellite
View from above satellite

Ground track
Ground track

The orbit data is extracted from the following two-line orbital elements,

1 17566U 87024A   15029.56912770  .00005086  00000-0  27427-3 0  2054
2 17566 082.5054 070.3819 0004038 017.2225 342.9143 15.14564689521983
Epoch (UTC): 29 January 2015 13:39:32
Eccentricity: 0.0004038
inclination: 82.5054°
perigee height: 519 km
apogee height: 525 km
right ascension of ascending node: 70.3819°
argument of perigee: 17.2225°
revolutions per day: 15.14564689
mean anomaly at epoch: 342.9143°
orbit number at epoch: 52198

The dashed part of the orbit path shows where the satellite is in the earth's shadow,  

DLR